�N����,����,�~����,�C��,���x,�C��,����,���ϕ���,�ő�u�ԕ���,�ő厞����,���˗�,�I�_���x,�n�����x,�ő啗���N��,DTYPE
"20/12/14","00:10",0.0,3.0,93.4,1006.9,298.6,1.3,2.0,315.2,0.00,2.1,7.8,"00:08:56",1
"20/12/14","00:20",0.0,2.8,93.6,1006.7,276.4,1.0,1.7,271.2,0.00,1.9,7.9,"00:10:40",1
"20/12/14","00:30",0.0,2.6,93.8,1006.4,322.3,2.1,4.3,317.6,0.00,1.7,7.8,"00:23:20",1
"20/12/14","00:40",0.0,2.4,94.0,1005.5,285.7,1.6,2.6,307.2,0.00,1.6,7.7,"00:31:12",1
"20/12/14","00:50",0.0,2.7,94.2,1006.0,318.0,2.2,3.4,321.3,0.00,1.9,7.8,"00:45:12",1
"20/12/14","01:00",0.0,3.1,94.2,1006.0,323.7,2.1,3.6,340.1,0.00,2.3,7.7,"00:55:36",1
"20/12/14","01:10",0.0,2.9,94.2,1005.7,288.7,1.2,2.1,318.7,0.00,2.1,7.9,"01:00:16",1
"20/12/14","01:20",0.0,2.8,94.4,1006.0,305.6,1.7,2.8,324.3,0.00,2.0,7.8,"01:16:32",1
"20/12/14","01:30",0.0,2.8,94.6,1006.0,291.9,0.7,1.4,264.5,0.00,2.1,7.6,"01:20:08",1
"20/12/14","01:40",0.0,2.8,94.5,1006.4,311.8,1.8,3.1,319.5,0.00,2.0,7.7,"01:34:08",1
"20/12/14","01:50",0.0,2.4,94.9,1006.2,287.7,1.7,2.7,312.8,0.00,1.7,7.6,"01:40:32",1
"20/12/14","02:00",0.0,3.0,95.1,1006.7,296.2,1.1,3.6,353.5,0.00,2.3,7.8,"01:56:32",1
"20/12/14","02:10",0.0,3.0,95.1,1006.7,299.4,1.5,3.5,333.2,0.00,2.3,7.7,"02:00:56",1
"20/12/14","02:20",0.0,3.1,95.2,1006.2,305.8,1.6,2.6,339.8,0.00,2.4,7.5,"02:15:44",1
"20/12/14","02:30",0.0,3.2,95.2,1006.0,302.1,1.6,3.9,324.5,0.00,2.5,7.7,"02:23:44",1
"20/12/14","02:40",0.0,3.6,95.4,1006.0,240.7,0.6,1.4,236.1,0.00,3.0,7.6,"02:33:36",1
"20/12/14","02:50",0.0,4.8,95.3,1006.2,294.4,2.1,3.3,310.3,0.00,4.2,7.7,"02:45:18",1
"20/12/14","03:00",0.0,4.8,95.2,1006.0,325.2,1.8,3.4,320.9,0.00,4.1,7.8,"02:50:56",1
"20/12/14","03:10",0.0,4.8,95.3,1006.2,319.2,2.3,5.0,313.7,0.00,4.2,7.8,"03:00:16",1
"20/12/14","03:20",0.0,6.7,94.8,1006.7,282.4,2.7,4.1,319.7,0.00,6.0,7.8,"03:13:04",1
"20/12/14","03:30",0.0,7.9,93.0,1006.4,275.1,3.6,6.0,304.9,0.00,6.9,8.0,"03:29:28",1
"20/12/14","03:40",0.0,8.4,91.6,1006.4,273.3,3.6,6.4,303.8,0.00,7.2,8.2,"03:30:08",1
"20/12/14","03:50",0.0,8.5,89.6,1006.7,291.9,3.5,6.7,311.2,0.00,6.9,8.1,"03:41:04",1
"20/12/14","04:00",0.0,8.6,87.2,1006.7,306.9,3.2,6.0,328.2,0.00,6.6,8.1,"03:52:32",1
"20/12/14","04:10",0.0,8.7,84.7,1007.1,300.3,3.1,5.7,336.1,0.00,6.3,8.2,"04:03:20",1
"20/12/14","04:20",0.0,8.7,82.4,1007.1,306.3,3.2,4.9,313.2,0.00,5.9,8.3,"04:16:40",1
"20/12/14","04:30",0.0,8.7,80.8,1007.1,311.9,3.2,5.2,333.1,0.00,5.6,8.4,"04:27:28",1
"20/12/14","04:40",0.0,8.6,79.7,1007.4,312.4,2.8,4.7,313.9,0.00,5.3,8.5,"04:37:44",1
"20/12/14","04:50",0.0,8.6,79.2,1007.4,311.0,3.1,5.1,334.4,0.00,5.2,8.3,"04:48:00",1
"20/12/14","05:00",0.0,8.6,78.4,1007.4,303.3,3.0,5.1,326.8,0.00,5.1,8.3,"04:54:00",1
"20/12/14","05:10",0.0,8.5,78.1,1007.1,284.6,2.2,4.3,319.4,0.00,4.9,8.5,"05:00:40",1
"20/12/14","05:20",0.0,8.4,77.8,1007.8,275.3,2.0,3.3,309.6,0.00,4.8,8.6,"05:11:28",1
"20/12/14","05:30",0.0,8.2,77.8,1007.8,287.5,1.8,2.7,302.1,0.00,4.6,8.3,"05:21:04",1
"20/12/14","05:40",0.0,7.9,78.0,1007.4,305.9,1.8,2.8,327.0,0.00,4.3,8.5,"05:35:36",1
"20/12/14","05:50",0.0,8.0,78.6,1007.1,273.5,2.0,3.3,268.5,0.00,4.6,8.5,"05:43:52",1
"20/12/14","06:00",0.0,7.8,78.8,1007.6,297.1,2.1,2.5,286.3,0.00,4.4,8.4,"05:50:24",1
"20/12/14","06:10",0.0,7.8,79.4,1007.6,288.6,2.1,2.7,277.5,0.00,4.5,8.5,"06:08:40",1
"20/12/14","06:20",0.0,7.9,79.6,1007.8,293.8,2.5,4.5,310.9,0.00,4.6,8.5,"06:18:48",1
"20/12/14","06:30",0.0,7.8,79.6,1007.6,292.4,2.2,4.1,300.9,0.00,4.5,8.4,"06:22:32",1
"20/12/14","06:40",0.0,7.8,79.8,1007.8,305.3,2.5,4.3,332.1,0.00,4.6,8.4,"06:39:04",1
"20/12/14","06:50",0.0,7.8,79.8,1008.3,323.1,3.1,4.7,323.4,0.00,4.6,8.4,"06:41:04",1
"20/12/14","07:00",0.0,7.8,79.9,1008.1,310.4,2.2,3.4,288.0,0.00,4.6,8.6,"06:50:02",1
"20/12/14","07:10",0.0,8.0,79.5,1008.3,288.9,1.8,3.3,306.3,0.00,4.7,8.7,"07:01:44",1
"20/12/14","07:20",0.0,8.1,79.2,1008.6,288.6,2.1,3.1,329.4,0.00,4.8,8.3,"07:12:40",1
"20/12/14","07:30",0.0,8.1,79.0,1008.6,296.0,2.7,4.2,305.2,0.00,4.7,8.7,"07:22:48",1
"20/12/14","07:40",0.0,8.0,78.6,1009.0,315.2,3.4,5.9,328.3,0.00,4.6,8.6,"07:30:48",1
"20/12/14","07:50",0.0,8.1,78.1,1009.0,306.8,2.8,5.2,339.0,0.00,4.6,8.6,"07:43:04",1
"20/12/14","08:00",0.0,8.0,78.1,1009.0,296.1,2.5,5.4,305.4,0.00,4.5,8.7,"07:50:24",1
"20/12/14","08:10",0.0,7.9,78.2,1009.7,279.4,2.3,4.7,290.0,0.00,4.4,8.8,"08:08:56",1
"20/12/14","08:20",0.0,7.9,78.2,1009.5,278.5,2.3,4.2,261.9,0.02,4.4,8.7,"08:17:12",1
"20/12/14","08:30",0.0,8.0,77.9,1009.5,290.2,2.7,4.9,328.6,0.03,4.4,8.8,"08:26:16",1
"20/12/14","08:40",0.0,7.9,77.5,1009.5,278.1,2.7,5.2,239.0,0.02,4.3,8.7,"08:31:52",1
"20/12/14","08:50",0.0,7.9,77.4,1009.5,278.9,2.3,3.5,261.0,0.01,4.2,8.8,"08:48:56",1
"20/12/14","09:00",0.0,7.8,77.4,1009.3,289.1,2.6,3.6,284.2,0.01,4.1,9.0,"08:51:28",1
"20/12/14","09:10",0.0,7.6,77.6,1009.7,294.2,3.0,4.9,309.1,0.01,4.0,8.6,"09:05:28",1
"20/12/14","09:20",0.0,7.6,77.9,1010.0,291.8,3.0,5.1,326.1,0.04,4.0,8.8,"09:18:48",1
"20/12/14","09:30",0.0,7.8,77.9,1009.3,288.9,3.1,5.0,263.4,0.07,4.2,8.9,"09:24:48",1
"20/12/14","09:40",0.0,8.0,77.2,1009.7,306.7,3.4,5.6,326.2,0.08,4.3,8.9,"09:38:56",1
"20/12/14","09:50",0.0,7.9,76.5,1009.3,317.2,4.4,6.6,328.5,0.05,4.1,8.9,"09:46:16",1
"20/12/14","10:00",0.0,8.1,75.4,1009.5,322.0,5.6,10.6,335.2,0.07,4.1,8.9,"09:50:32",1
"20/12/14","10:10",0.0,8.3,74.1,1009.0,310.4,4.2,7.1,318.4,0.08,4.0,9.1,"10:00:48",1
"20/12/14","10:20",0.0,8.3,73.9,1009.5,299.1,3.5,5.9,333.1,0.07,4.0,9.0,"10:16:08",1
"20/12/14","10:30",0.0,8.2,74.2,1008.8,310.1,4.2,6.6,337.5,0.08,3.9,9.3,"10:26:00",1
"20/12/14","10:40",0.0,8.3,74.4,1009.0,307.5,3.5,8.6,316.0,0.11,4.1,9.1,"10:35:28",1
"20/12/14","10:50",0.0,8.3,74.4,1008.8,302.5,3.6,6.4,332.7,0.09,4.1,9.3,"10:40:16",1
"20/12/14","11:00",0.0,8.5,74.5,1008.8,298.8,3.6,5.7,346.3,0.13,4.3,9.3,"10:50:08",1
"20/12/14","11:10",0.0,9.1,73.9,1008.3,289.7,3.1,5.2,320.1,0.19,4.7,9.4,"11:03:36",1
"20/12/14","11:20",0.0,9.2,72.1,1008.3,295.3,3.4,6.7,317.3,0.17,4.5,9.5,"11:15:12",1
"20/12/14","11:30",0.0,9.3,69.8,1008.6,305.7,3.5,6.3,280.3,0.12,4.1,9.6,"11:25:36",1
"20/12/14","11:40",0.0,9.2,68.8,1008.3,301.8,4.2,8.3,342.4,0.15,3.8,9.6,"11:30:08",1
"20/12/14","11:50",0.0,9.0,69.4,1008.3,312.0,3.6,6.0,311.8,0.11,3.7,9.8,"11:43:28",1
"20/12/14","12:00",0.0,8.8,69.6,1008.3,287.7,3.6,7.1,315.3,0.11,3.6,9.5,"11:52:16",1
"20/12/14","12:10",0.0,9.0,69.0,1008.3,288.3,3.2,5.4,303.8,0.13,3.7,9.7,"12:04:24",1
"20/12/14","12:20",0.0,9.1,68.5,1008.3,284.9,3.5,7.9,246.8,0.12,3.7,9.8,"12:15:30",1
"20/12/14","12:30",0.0,8.8,70.1,1008.3,276.2,3.6,6.6,267.3,0.11,3.7,9.7,"12:26:48",1
"20/12/14","12:40",0.0,7.8,75.1,1007.8,286.9,3.7,6.5,333.3,0.12,3.7,9.7,"12:31:20",1
"20/12/14","12:50",0.0,7.4,78.6,1007.6,250.4,3.0,6.0,226.7,0.18,4.0,9.7,"12:45:08",1
"20/12/14","13:00",0.0,7.4,80.6,1007.6,260.0,2.8,4.1,229.0,0.19,4.3,9.7,"12:52:04",1
"20/12/14","13:10",0.0,7.9,82.0,1007.4,286.4,3.0,4.7,310.1,0.25,5.1,9.8,"13:05:38",1
"20/12/14","13:20",0.0,7.8,81.3,1007.4,281.0,3.4,5.6,303.6,0.13,4.8,10.1,"13:15:00",1
"20/12/14","13:30",0.0,7.7,81.0,1007.4,279.7,2.8,4.2,267.4,0.11,4.7,9.8,"13:20:46",1
"20/12/14","13:40",0.0,7.8,81.1,1007.1,292.8,3.1,4.2,303.0,0.12,4.8,10.0,"13:33:40",1
"20/12/14","13:50",0.0,8.1,82.0,1007.1,282.4,2.7,4.1,304.7,0.23,5.3,10.0,"13:49:00",1
"20/12/14","14:00",0.0,8.9,80.7,1007.1,280.9,3.0,8.1,336.4,0.36,5.8,10.2,"13:59:48",1
"20/12/14","14:10",0.0,9.1,78.9,1007.6,287.4,3.5,7.4,304.8,0.37,5.7,10.5,"14:03:12",1
"20/12/14","14:20",0.0,9.3,77.1,1007.4,282.2,3.2,5.5,249.7,0.30,5.5,10.6,"14:13:54",1
"20/12/14","14:30",0.0,9.5,75.3,1007.8,280.0,3.5,5.5,325.4,0.32,5.4,10.6,"14:29:20",1
"20/12/14","14:40",0.0,9.7,73.2,1007.8,278.3,3.1,6.2,316.7,0.29,5.2,10.8,"14:39:12",1
"20/12/14","14:50",0.0,9.5,71.2,1007.8,283.5,3.5,6.2,289.2,0.24,4.6,10.9,"14:49:04",1
"20/12/14","15:00",0.0,9.5,69.0,1008.1,287.6,3.7,5.8,303.7,0.22,4.1,10.7,"14:56:40",1
"20/12/14","15:10",0.0,8.8,69.2,1008.1,305.1,4.0,7.7,316.4,0.09,3.5,10.8,"15:04:56",1
"20/12/14","15:20",0.0,8.3,70.3,1007.6,316.3,4.9,8.6,345.8,0.08,3.3,10.6,"15:15:12",1
"20/12/14","15:30",0.0,8.1,71.2,1007.8,322.1,5.0,9.6,324.0,0.06,3.2,10.5,"15:20:16",1
"20/12/14","15:40",0.0,8.1,71.9,1007.8,306.7,3.6,6.2,336.9,0.06,3.4,10.5,"15:30:40",1
"20/12/14","15:50",0.0,7.7,73.3,1007.8,293.5,3.7,6.3,304.8,0.04,3.3,10.3,"15:46:04",1
"20/12/14","16:00",0.0,7.5,74.5,1007.8,305.4,3.4,5.9,330.0,0.02,3.3,10.2,"15:55:04",1
"20/12/14","16:10",0.0,7.2,75.5,1007.6,279.5,3.4,6.3,319.1,0.00,3.2,10.2,"16:01:52",1
"20/12/14","16:20",0.0,7.0,76.3,1007.8,281.8,3.7,6.3,264.2,0.00,3.2,9.9,"16:19:24",1
"20/12/14","16:30",0.0,6.9,77.2,1007.8,282.3,3.6,6.6,310.7,0.00,3.2,10.0,"16:27:06",1
"20/12/14","16:40",0.0,6.6,78.2,1008.3,281.9,3.1,5.7,315.2,0.00,3.1,9.9,"16:37:36",1
"20/12/14","16:50",0.0,6.4,79.0,1008.6,283.4,3.5,6.3,302.2,0.00,3.1,9.8,"16:46:58",1
"20/12/14","17:00",0.0,6.1,79.6,1008.3,278.2,3.5,5.8,295.6,0.00,2.9,9.8,"16:55:52",1
"20/12/14","17:10",0.0,5.9,80.1,1008.3,300.9,4.1,6.5,316.8,0.00,2.8,9.5,"17:04:56",1
"20/12/14","17:20",0.0,5.7,80.6,1008.3,305.8,3.1,5.1,318.7,0.00,2.7,9.3,"17:11:36",1
"20/12/14","17:30",0.0,5.5,80.9,1008.3,282.4,2.1,7.3,338.3,0.00,2.5,9.4,"17:29:20",1
"20/12/14","17:40",0.0,5.7,80.8,1008.8,298.8,3.6,7.3,304.3,0.00,2.7,9.1,"17:30:32",1
"20/12/14","17:50",0.0,5.6,80.4,1009.0,305.5,3.4,5.6,311.3,0.00,2.5,9.2,"17:48:24",1
"20/12/14","18:00",0.0,5.6,79.9,1009.0,290.8,3.0,6.0,322.4,0.00,2.4,9.1,"17:51:28",1
"20/12/14","18:10",0.0,5.4,79.9,1009.3,283.9,2.6,4.5,277.0,0.00,2.3,9.0,"18:04:08",1
"20/12/14","18:20",0.0,5.3,80.1,1009.3,296.0,2.1,4.5,339.2,0.00,2.2,9.0,"18:19:28",1
"20/12/14","18:30",0.0,5.4,80.1,1009.3,294.7,2.6,5.2,338.5,0.00,2.3,8.8,"18:22:56",1
"20/12/14","18:40",0.0,5.3,80.1,1009.5,302.4,2.7,6.0,310.7,0.00,2.2,9.0,"18:34:16",1
"20/12/14","18:50",0.0,5.3,80.5,1009.7,295.6,3.2,5.8,269.1,0.00,2.3,8.8,"18:45:44",1
"20/12/14","19:00",0.0,5.2,80.7,1009.5,302.3,2.7,5.2,318.2,0.00,2.2,8.8,"18:56:00",1
"20/12/14","19:10",0.0,5.1,81.1,1009.7,293.6,2.8,5.4,334.8,0.00,2.2,8.7,"19:00:40",1
"20/12/14","19:20",0.0,5.0,81.4,1009.5,297.2,3.0,6.0,333.3,0.00,2.1,8.9,"19:14:40",1
"20/12/14","19:30",0.0,5.0,81.7,1009.7,290.0,3.2,5.7,264.3,0.00,2.2,8.8,"19:26:40",1
"20/12/14","19:40",0.0,5.1,82.0,1010.0,294.4,3.5,7.4,342.9,0.00,2.3,8.5,"19:35:28",1
"20/12/14","19:50",0.0,4.9,82.4,1009.5,293.7,3.1,5.9,327.6,0.00,2.2,8.4,"19:44:00",1
"20/12/14","20:00",0.0,4.9,82.8,1009.7,297.6,3.1,6.6,285.0,0.00,2.3,8.6,"19:53:28",1
"20/12/14","20:10",0.0,4.8,83.3,1010.0,299.5,2.8,5.2,334.2,0.00,2.3,8.2,"20:03:44",1
"20/12/14","20:20",0.0,4.8,83.8,1010.0,284.6,3.1,5.1,262.9,0.00,2.3,8.5,"20:13:52",1
"20/12/14","20:30",0.0,4.7,84.3,1009.7,296.5,3.0,5.1,285.1,0.00,2.3,8.5,"20:26:08",1
"20/12/14","20:40",0.0,4.6,84.9,1010.4,303.0,3.5,7.4,331.0,0.00,2.3,8.4,"20:35:28",1
"20/12/14","20:50",0.0,4.5,85.5,1010.0,291.3,3.1,4.9,327.0,0.00,2.3,8.2,"20:41:52",1
"20/12/14","21:00",0.0,4.4,86.3,1010.2,297.6,3.6,5.4,333.8,0.00,2.4,8.2,"20:50:32",1
"20/12/14","21:10",0.0,4.4,86.7,1010.2,294.6,3.6,8.9,339.4,0.00,2.4,8.1,"21:00:16",1
"20/12/14","21:20",0.0,4.5,86.8,1010.4,289.0,4.0,6.8,313.8,0.00,2.5,8.2,"21:13:36",1
"20/12/14","21:30",0.0,4.5,86.6,1010.4,286.2,3.7,5.9,254.8,0.00,2.5,8.2,"21:28:32",1
"20/12/14","21:40",0.0,4.5,86.4,1010.4,282.4,3.6,6.7,312.7,0.00,2.5,8.1,"21:30:24",1
"20/12/14","21:50",0.0,4.5,86.2,1010.7,289.1,3.6,6.0,318.4,0.00,2.4,8.2,"21:40:02",1
"20/12/14","22:00",0.0,4.5,86.0,1010.4,293.9,3.6,5.6,309.1,0.00,2.4,8.1,"21:50:08",1
"20/12/14","22:10",0.0,4.4,85.7,1010.7,285.2,3.6,6.5,333.5,0.00,2.3,8.0,"22:04:16",1
"20/12/14","22:20",0.0,4.5,85.4,1011.2,296.2,4.1,8.8,312.7,0.00,2.3,7.8,"22:12:40",1
"20/12/14","22:30",0.0,4.4,84.9,1011.2,285.4,3.6,5.7,322.4,0.00,2.1,8.1,"22:29:52",1
"20/12/14","22:40",0.0,4.5,84.1,1010.9,294.1,4.5,7.1,304.8,0.00,2.1,8.0,"22:31:12",1
"20/12/14","22:50",0.0,4.5,83.3,1011.4,308.1,4.4,6.4,315.2,0.00,2.0,8.1,"22:44:32",1
"20/12/14","23:00",0.0,4.5,82.7,1011.6,299.0,4.2,7.0,330.9,0.00,1.9,7.9,"22:53:04",1
"20/12/14","23:10",0.0,4.4,82.1,1011.4,305.9,3.9,9.0,334.8,0.00,1.7,7.9,"23:03:36",1
"20/12/14","23:20",0.0,4.3,81.7,1011.2,302.9,3.6,5.7,338.2,0.00,1.5,7.8,"23:18:00",1
"20/12/14","23:30",0.0,4.3,81.4,1011.2,303.9,4.1,8.0,336.7,0.00,1.4,7.8,"23:25:12",1
"20/12/14","23:40",0.0,4.3,81.1,1011.4,310.3,4.0,7.2,329.4,0.00,1.4,7.7,"23:31:20",1
"20/12/14","23:50",0.0,4.4,80.5,1011.6,318.3,5.0,10.1,349.9,0.00,1.4,7.9,"23:44:32",1
"20/12/14","24:00",0.0,4.3,80.0,1011.2,299.1,3.6,8.1,331.3,0.00,1.2,7.6,"23:51:44",1
